This is the latest recevied weather packets stored in our database for station/object KI5NXU. If no packets are shown the sender has not sent any weather packets the latest 10 day(s).
| Time | Temp. | Humidity | Pressure | Rain* | Wind** | Luminosity | Snow |
|---|---|---|---|---|---|---|---|
| 1777924940 | 28.89° C | 53% | 1006.9 hPa | 0 mm | - | 595 W/m² | - |
| 1777924637 | 28.89° C | 53% | 1006.9 hPa | 0 mm | - | 521 W/m² | - |
| 1777924332 | 30° C | 52% | 1007.1 hPa | 0 mm | - | 738 W/m² | - |
| 1777924030 | 28.89° C | 54% | 1007.2 hPa | 0 mm | - | 731 W/m² | - |
| 1777923726 | 28.89° C | 52% | 1007 hPa | 0 mm | - | 721 W/m² | - |
| 1777923422 | 30° C | 53% | 1007.2 hPa | 0 mm | - | 758 W/m² | - |
| 1777923120 | 29.44° C | 55% | 1007.4 hPa | 0 mm | - | 779 W/m² | - |
| 1777922818 | 30° C | 53% | 1007.6 hPa | 0 mm | - | 724 W/m² | - |
| 1777922516 | 28.89° C | 53% | 1007.5 hPa | 0 mm | - | 720 W/m² | - |
| 1777922214 | 28.89° C | 55% | 1007.7 hPa | 0 mm | - | 694 W/m² | - |
| 1777921910 | 29.44° C | 54% | 1007.6 hPa | 0 mm | - | 712 W/m² | - |
| 1777921606 | 28.33° C | 54% | 1007.3 hPa | 0 mm | - | 653 W/m² | - |
| 1777921303 | 28.89° C | 55% | 1007.9 hPa | 0 mm | - | 644 W/m² | - |
| 1777920999 | 28.33° C | 53% | 1007.8 hPa | 0 mm | - | 645 W/m² | - |
| 1777920696 | 28.33° C | 55% | 1008.1 hPa | 0 mm | - | 726 W/m² | - |
| 1777920392 | 28.33° C | 54% | 1008 hPa | 0 mm | - | 737 W/m² | - |
| 1777920087 | 27.78° C | 58% | 1008.1 hPa | 0 mm | - | 597 W/m² | - |
| 1777919784 | 27.22° C | 58% | 1008.2 hPa | 0 mm | - | 656 W/m² | - |
| 1777919482 | 27.78° C | 56% | 1008.1 hPa | 0 mm | - | 711 W/m² | - |
| 1777919180 | 27.22° C | 58% | 1008.4 hPa | 0 mm | - | 711 W/m² | - |
| 1777918877 | 27.78° C | 56% | 1008.2 hPa | 0 mm | - | 742 W/m² | - |
| 1777918574 | 27.78° C | 57% | 1008.4 hPa | 0 mm | - | 719 W/m² | - |
| 1777918271 | 27.22° C | 60% | 1008.5 hPa | 0 mm | - | 711 W/m² | - |
| 1777917970 | 26.11° C | 59% | 1008.7 hPa | 0 mm | - | 760 W/m² | - |
| 1777917669 | 26.67° C | 59% | 1008.8 hPa | 0 mm | - | 751 W/m² | - |
* Rain latest hour (hover to see other rain measurements)
** Current wind speed in m/s (hover to see current wind gust speed)